Вернуться в каталог

OPS 4682 DEB

АктивенPO
NORAD 19355·DEBRIS·🇺🇸 United States

Запущен Apr 3, 1965 с Vandenberg Space Force Base

Loading…

Ближайшие Пролёты (ближайшие 24 часа)

TLE

СвежийSource: Space-Track

Эпоха: Sep 14, 2026, 06:28 UTC

1 19355U 65027AT  26257.26988115  .00000365  00000-0  12108-2 0  9993
2 19355  90.2390 359.4609 0045081 171.4702 216.2983 12.98278654814268

Отслеживайте OPS 4682 DEB в реальном времени с AllMySat

Download on the App Store